Theta_e
313 312 313 313 313 313 313 313 314 315 316 317 317 318 320 323 325 326 326 324 323 322 321 321 320 320 319 317 317 320 322 320 316 317 317 315 313 312 312 312 312 311
312 312 313 313 313 314 313 314 314 315 316 316 317 319 322 325 327 328 327 326 324 323 322 321 321 321 318 317 318 318 317 318 317 316 314 313 313 312 311 312 311 311
312 313 313 313 314 314 315 315 314 315 316 317 318 320 323 326 328 328 328 327 325 324 323 322 322 321 319 319 321 319 317 319 317 314 313 313 312 311 311 311 310 310
312 313 313 313 314 314 316 316 316 316 316 317 318 320 324 327 329 329 328 327 326 324 323 322 321 320 318 319 320 319 317 317 315 313 313 312 311 311 310 310 309 309
313 313 313 314 315 315 317 318 317 317 318 319 320 322 325 328 329 329 328 328 326 325 323 322 321 320 319 318 317 316 315 314 313 312 312 311 311 310 310 309 309 307
312 313 314 315 316 317 318 318 319 319 320 321 323 324 326 328 329 329 328 327 326 325 324 322 320 320 319 318 316 314 313 312 312 312 311 311 310 309 309 308 307 305
311 312 313 315 316 318 318 319 320 321 322 324 325 326 327 328 328 328 327 327 326 325 324 322 320 319 317 316 315 313 312 312 312 311 311 310 309 309 308 307 305 302
311 311 312 314 315 317 318 319 320 322 324 325 326 327 327 327 328 328 327 327 326 325 324 322 319 318 316 315 313 312 312 312 311 311 310 309 309 308 307 305 303 300
311 311 312 313 314 316 317 319 320 322 323 325 326 326 326 326 328 328 327 326 325 324 324 321 318 317 316 314 312 312 312 311 311 310 309 309 308 307 305 303 301 299
312 312 312 312 314 315 317 318 320 321 323 324 325 325 326 326 327 328 327 326 325 324 323 319 317 317 316 313 312 312 311 311 310 309 309 308 307 305 303 301 300 298
313 313 313 313 313 314 316 318 320 321 322 323 323 324 325 326 327 327 328 326 325 325 323 319 317 317 314 312 312 312 311 310 309 309 309 307 305 303 301 300 298 297
312 313 314 314 315 315 317 319 320 321 322 323 323 324 324 326 327 328 328 327 325 324 322 319 318 317 313 311 312 311 310 309 309 309 308 306 303 301 300 298 297 297
311 312 313 314 316 318 319 321 322 322 323 323 323 324 325 326 327 329 329 326 324 323 321 318 318 317 312 311 311 310 310 309 309 308 306 304 302 300 298 297 296 298
310 311 312 313 315 318 320 322 323 323 324 324 323 324 326 326 327 329 328 326 324 321 319 318 318 315 312 311 311 310 309 309 308 308 305 302 301 299 297 296 297 298
309 310 311 312 312 314 317 320 321 322 323 324 325 325 326 327 328 328 327 325 322 320 319 318 316 312 311 311 310 309 309 309 308 306 303 301 300 298 297 296 297 298
309 309 310 311 311 312 313 315 318 320 322 324 326 326 326 327 328 327 326 323 320 319 318 317 313 311 311 311 309 309 309 308 307 304 301 300 299 298 296 297 298 298
309 309 310 311 311 311 311 313 316 319 321 323 324 323 324 326 327 325 323 320 319 319 317 314 311 311 311 310 309 309 308 307 306 303 301 299 298 297 296 297 298 299
309 309 310 310 311 311 312 314 317 319 320 322 323 322 324 325 324 322 320 319 319 318 314 311 311 311 310 309 309 308 307 306 304 302 300 299 297 296 296 298 298 299
309 308 308 309 310 312 314 316 318 320 321 323 323 323 323 322 320 319 319 320 319 316 311 311 311 310 309 309 308 308 306 303 301 300 299 298 296 296 297 298 298 298
310 308 308 308 310 313 316 318 319 320 321 322 321 320 320 320 321 321 321 320 317 313 310 310 310 309 309 309 308 307 305 301 299 298 297 296 296 296 297 298 297 297
311 309 308 308 310 313 316 318 319 320 321 321 321 321 321 322 321 321 319 317 314 311 310 310 310 309 308 308 308 305 302 300 298 297 296 296 295 296 296 296 296 296
311 310 309 308 310 313 315 317 318 320 321 321 321 321 321 319 319 318 316 314 311 310 310 310 309 309 308 308 306 303 300 299 298 297 296 295 295 296 295 295 295 295
312 311 310 309 309 311 312 314 315 316 317 318 318 318 317 316 316 315 313 311 310 310 310 309 308 308 308 307 304 302 299 298 298 297 296 295 295 295 295 295 295 295
312 312 311 311 310 311 311 312 312 313 313 314 315 315 315 315 315 313 311 310 310 310 309 308 308 308 307 305 302 300 299 298 297 296 295 295 295 295 294 294 295 295
312 312 312 312 311 312 312 312 312 313 313 313 314 314 315 315 313 311 310 310 310 309 308 308 308 307 305 303 301 299 298 297 297 296 295 295 295 294 294 294 295 295
311 312 312 312 312 312 312 313 313 313 313 313 314 314 314 313 311 310 310 310 309 308 308 307 307 305 303 301 299 298 297 297 296 296 295 295 295 294 294 295 294 294
Wind_Speed
44 45 46 46 46 45 44 43 42 40 40 38 37 34 30 27 26 25 27 27 28 28 28 28 28 26 25 25 27 27 28 28 25 23 22 21 20 19 17 16 14 13
44 44 45 46 46 45 45 44 42 40 39 38 36 32 28 26 26 26 27 27 28 28 29 29 29 28 27 26 27 28 28 26 23 22 22 20 19 18 16 15 13 13
43 44 45 45 45 44 44 44 42 40 38 37 35 32 29 27 27 27 27 28 28 29 29 30 31 30 28 28 28 28 27 26 23 22 22 20 19 17 16 15 14 13
44 44 44 43 43 43 43 43 43 40 38 36 34 32 30 28 28 28 28 29 30 29 30 31 32 31 29 29 29 29 27 26 24 22 21 20 18 17 16 15 14 14
43 44 43 42 42 41 41 42 42 39 36 35 33 32 30 29 29 29 29 31 31 31 32 32 31 30 29 29 28 27 26 24 23 23 21 18 18 17 16 16 16 16
41 42 41 41 41 40 40 40 39 37 35 33 32 31 30 30 30 30 31 32 33 33 33 32 31 31 30 29 27 26 25 24 23 22 20 18 18 18 18 18 17 16
38 39 38 39 39 38 38 38 36 35 33 32 31 30 30 31 31 32 32 33 34 34 33 32 32 30 29 28 28 27 25 23 22 21 20 19 19 19 19 19 18 17
35 35 36 37 37 36 36 35 34 32 31 30 30 30 31 31 32 33 33 34 35 34 32 32 31 29 28 28 27 27 25 23 22 21 20 20 21 20 20 19 18 18
32 33 34 34 35 35 35 33 32 31 29 30 31 31 31 32 33 33 35 36 35 33 31 31 30 29 28 27 27 26 24 23 22 21 21 21 21 21 20 20 19 19
29 31 32 33 34 34 33 32 31 30 30 30 31 32 32 33 33 34 35 36 34 33 32 30 28 28 27 27 27 25 24 23 21 21 21 22 21 21 21 20 20 19
27 28 29 31 32 32 31 31 30 30 31 31 32 33 33 34 34 35 36 36 34 33 32 30 28 28 27 28 27 25 24 22 21 21 23 23 23 22 21 20 20 18
26 26 27 28 29 30 30 30 30 31 32 33 33 34 33 34 34 35 37 36 33 33 33 31 29 28 28 28 26 25 24 23 23 24 24 24 24 23 22 21 20 18
25 25 25 24 25 27 28 29 30 31 32 33 33 33 33 34 34 36 38 34 32 33 34 31 28 28 28 28 25 25 25 25 25 26 26 26 25 24 24 22 20 17
21 22 23 23 24 25 27 28 30 30 31 31 31 32 33 32 33 37 37 33 32 33 32 29 28 29 29 28 27 27 27 27 27 27 27 27 26 25 24 22 20 18
18 20 22 23 24 25 27 28 29 29 30 30 30 30 31 32 35 37 35 32 32 32 30 29 29 30 29 28 28 29 29 28 28 28 27 27 27 26 25 22 20 18
17 19 21 23 25 26 27 29 29 29 29 30 30 31 31 33 35 35 33 33 31 29 29 29 30 30 30 29 29 29 28 28 28 28 28 28 27 26 24 22 20 18
16 18 20 22 24 25 27 28 29 29 30 30 31 31 32 33 34 34 33 32 29 28 29 31 32 31 31 30 30 29 28 28 28 29 29 28 27 25 23 22 20 19
16 17 20 22 23 24 25 26 27 28 29 30 30 30 32 33 32 33 33 31 29 30 32 33 33 31 31 30 30 29 28 28 29 29 29 28 26 24 23 21 20 19
16 17 19 20 21 21 22 23 24 26 27 28 29 30 31 32 32 32 32 31 32 33 33 33 32 31 31 31 30 30 29 30 30 30 29 27 26 25 24 22 21 19
16 17 18 19 20 21 21 22 23 25 26 28 29 30 31 33 33 33 33 33 33 33 33 32 32 31 31 32 31 31 31 31 31 30 28 26 26 25 24 23 21 19
17 18 19 19 20 21 22 23 24 25 27 29 31 31 32 33 34 33 33 33 32 32 32 31 31 32 32 32 32 32 32 33 32 30 28 27 26 26 24 23 21 19
18 19 20 20 21 23 24 26 27 28 29 30 31 32 33 34 34 33 32 32 32 32 32 32 32 33 34 33 33 33 34 34 33 31 30 29 28 27 26 24 22 19
19 20 21 22 24 26 27 28 30 31 32 33 34 34 34 33 32 31 32 32 33 33 33 34 34 35 35 34 35 35 35 35 34 32 31 31 30 28 27 24 22 19
20 21 22 23 24 26 27 29 30 31 32 33 34 33 33 31 31 31 32 33 34 33 34 34 35 35 35 35 35 35 35 35 34 33 32 32 31 29 27 25 22 19
21 22 23 24 25 25 26 27 29 29 30 31 31 32 31 31 31 32 32 33 33 33 33 35 35 35 35 36 36 36 36 35 34 33 33 33 32 30 28 25 22 19
21 22 23 24 24 25 26 27 28 29 29 30 31 31 31 31 31 31 32 32 32 33 34 35 35 35 36 36 36 36 36 35 34 34 33 33 31 30 28 25 22 20
Wind_Direction
246 246 247 248 249 250 250 249 248 246 245 245 244 243 239 236 238 240 241 241 241 240 240 243 246 247 246 241 238 239 242 245 244 242 246 250 250 249 246 243 239 232
245 245 246 247 248 248 249 249 249 248 246 246 245 244 240 236 235 237 237 238 238 237 238 242 244 245 245 242 239 241 242 243 243 243 246 246 242 242 241 237 229 220
243 244 245 246 247 248 248 249 249 248 246 246 245 244 241 237 235 235 234 234 234 236 237 239 242 243 242 238 238 243 243 241 242 243 240 236 234 234 233 227 220 211
241 242 243 244 246 248 248 248 249 247 245 245 244 242 239 236 234 234 233 232 233 235 236 237 241 242 240 236 236 241 240 237 236 233 229 228 227 228 224 216 209 203
242 242 243 244 245 246 248 248 249 247 245 244 242 240 237 233 232 232 230 232 234 235 236 238 239 238 237 238 238 237 233 228 225 223 223 223 223 221 213 206 203 199
244 243 244 245 245 246 247 249 249 248 245 243 241 239 235 231 229 229 229 231 234 236 237 239 237 235 235 236 234 230 225 220 219 220 221 221 218 213 207 203 200 196
247 246 245 246 247 247 247 249 249 247 245 242 240 237 233 230 228 227 228 231 235 238 238 239 240 237 232 229 227 224 220 216 216 217 217 216 212 207 204 201 198 196
247 247 246 245 246 246 246 247 246 244 242 239 237 234 230 228 226 227 228 230 235 238 238 240 242 235 226 224 222 219 216 214 213 214 213 211 208 205 203 200 198 198
247 246 245 243 243 243 244 244 243 241 237 234 233 230 227 226 225 227 228 231 235 237 238 241 238 227 223 223 219 215 215 214 213 212 211 209 206 204 202 201 201 201
248 246 244 243 242 241 241 240 239 237 233 231 229 227 225 224 224 226 228 232 234 235 239 241 230 222 222 220 214 211 213 213 212 211 208 206 205 203 202 203 205 203
249 247 245 244 242 240 238 236 234 232 230 229 227 225 224 222 223 226 227 231 233 233 238 239 227 221 221 216 211 209 210 209 208 208 206 204 202 202 203 205 205 202
250 248 246 245 242 239 236 232 230 228 227 227 226 224 222 221 224 226 225 229 231 231 236 236 227 222 220 215 211 209 206 205 204 206 206 204 202 202 204 205 202 199
252 248 245 242 239 236 232 229 227 225 226 227 225 223 222 223 225 224 223 229 232 232 234 232 225 222 218 214 211 208 205 204 205 206 205 204 204 204 205 203 200 200
254 249 244 240 236 233 229 227 226 225 226 226 225 224 223 225 227 223 222 229 235 234 233 228 222 219 215 211 209 207 206 206 207 207 205 205 205 206 205 201 199 201
254 247 242 238 233 230 228 226 226 225 225 224 225 225 225 227 226 222 224 233 237 232 228 224 220 215 211 210 208 206 207 207 207 207 206 206 208 207 204 200 200 204
251 245 240 236 234 231 229 227 225 224 224 224 225 225 226 226 222 218 226 237 234 226 222 220 216 211 209 209 209 208 209 208 207 207 207 209 211 209 204 201 203 207
250 244 238 236 234 232 229 227 225 223 222 222 224 223 223 222 217 218 228 233 228 223 222 217 212 209 209 208 207 208 209 208 209 210 209 210 210 208 205 205 207 210
254 245 239 235 233 231 229 226 223 222 220 221 223 222 218 216 218 224 228 228 225 224 220 214 212 210 208 206 206 206 206 208 212 213 212 211 208 205 206 209 211 214
259 248 241 236 232 230 228 224 221 221 221 222 222 220 218 220 224 228 227 227 226 223 216 213 213 211 207 206 206 206 205 207 212 214 214 212 208 206 208 211 214 218
262 252 244 239 232 229 227 224 223 223 224 224 224 223 223 224 227 229 230 230 226 219 214 213 212 210 209 209 207 206 206 208 211 213 212 211 210 210 212 214 216 220
262 255 248 241 234 230 228 227 228 227 227 227 226 226 227 228 231 233 233 229 221 217 215 213 212 210 210 210 208 207 207 209 211 211 210 209 210 212 215 216 218 221
261 256 250 242 236 232 230 230 229 229 230 229 229 230 232 235 235 233 229 223 217 216 215 213 212 211 211 211 209 208 209 211 212 211 209 210 211 214 217 217 219 223
259 256 251 244 238 234 232 232 231 231 231 232 233 235 235 234 232 226 222 219 217 216 215 213 212 211 211 211 210 210 211 213 214 212 211 212 213 216 219 219 221 224
258 256 252 247 242 238 236 236 235 234 234 233 234 235 234 232 229 224 220 219 218 218 216 214 213 212 212 211 211 212 214 216 216 215 213 214 215 218 220 221 222 225
256 254 252 249 245 243 240 239 238 237 236 235 234 233 232 231 228 224 222 221 220 219 217 216 215 214 213 213 213 215 217 218 218 217 216 217 218 219 221 222 224 226
254 253 252 250 248 245 242 240 239 238 237 235 233 232 231 229 226 225 224 223 221 219 217 217 216 215 216 216 216 217 219 219 219 220 220 220 221 222 223 225 226 227